Torna al catalogo

CZ-6A DEB

AttivoPO
NORAD 60661·DEBRIS·🇨🇳 China

Lanciato Aug 6, 2024 da Taiyuan Satellite Launch Center

Loading…

Prossimi Passaggi (prossime 24 ore)

TLE

AggiornatoSource: Space-Track

Epoca: Sep 14, 2026, 10:12 UTC

1 60661U 24140BN  26257.42513390  .00001837  00000-0  53332-3 0  9997
2 60661  88.8760 250.1831 0043971 350.6754   9.3627 14.43441765110426

Traccia CZ-6A DEB in tempo reale con AllMySat

Download on the App Store